Find Starlink 32318

NORAD ID: 61864 Int'l Des: 2024-202 Owner: SPXS Country: US Constellation: starlink operational
LEOCIRCULAR

Live Position

Loading 3D Globe...

About Starlink 32318

Description loading...

Upcoming Passes

Passes for default location (London). Set your location on the main map for personalized predictions.

Altitude History

Loading altitude history...

Two-Line Element Set

1 61864U 24202V 26127.07650618 -.00002904 00000-0 -96108-4 0 9991
2 61864 42.9981 268.5530 0000447 310.7189 49.3624 15.27564698 84264
Epoch: May 7, 2026 • Age: 14 hours

Current Status

Altitude 487.9 km
Velocity 7.62 km/s
Sub-Earth Point -21.90°S, 137.13°E
Launch Date Nov 7, 2024
Age 1.4 years
Type internet

Technical Details

Classification Payload
Mass 730.00 kg
Dry Mass 700.00 kg
Total Mass 730.00 kg
Length 0.30 m
Diameter 4.10 m
Span 29.00 m
Shape Box + pan
Manufacturer SPXS
Bus Type Starlink V2M
Phase Status In Orbit
Owner/State SPXS/US

Most Searched